Total_Precipitation_Accumulation
0.14 0.12 0.12 0.18 0.17 0.08 0.03 0.02 0.01 0.04 0.04 0.02 0.03 0.04 0.04 0.04 0.03 0.07 0.05 0.02 0.02 0.02 0.09 0.23 0.31 0.33 0.31 0.28 0.25 0.23 0.21 0.26 0.33 0.39 0.38 0.33 0.26 0.23 0.23 0.20 0.20 0.21 0.25 0.27 0.28 0.22 0.18 0.13 0.12
0.16 0.20 0.26 0.31 0.16 0.06 0.02 0.01 0.01 0.03 0.04 0.03 0.04 0.07 0.12 0.10 0.05 0.05 0.06 0.04 0.03 0.04 0.09 0.20 0.32 0.33 0.31 0.30 0.28 0.27 0.27 0.29 0.34 0.41 0.40 0.36 0.30 0.29 0.27 0.24 0.20 0.19 0.19 0.18 0.20 0.17 0.13 0.10 0.08
0.25 0.35 0.44 0.32 0.13 0.05 0.02 0.01 0.01 0.02 0.04 0.06 0.07 0.11 0.25 0.23 0.10 0.07 0.06 0.06 0.06 0.10 0.13 0.23 0.31 0.35 0.32 0.31 0.28 0.30 0.32 0.33 0.37 0.41 0.41 0.35 0.32 0.32 0.30 0.26 0.20 0.17 0.16 0.16 0.16 0.14 0.10 0.07 0.05
0.42 0.63 0.55 0.30 0.10 0.03 0.02 0.01 0.01 0.04 0.06 0.07 0.11 0.18 0.31 0.27 0.17 0.13 0.11 0.10 0.12 0.16 0.23 0.31 0.35 0.36 0.37 0.36 0.33 0.32 0.34 0.38 0.42 0.44 0.43 0.36 0.35 0.37 0.33 0.27 0.18 0.15 0.14 0.15 0.15 0.15 0.11 0.08 0.06
0.66 0.72 0.50 0.27 0.10 0.03 0.02 0.01 0.02 0.04 0.07 0.08 0.13 0.26 0.40 0.34 0.31 0.32 0.26 0.19 0.20 0.23 0.32 0.41 0.44 0.45 0.44 0.43 0.45 0.42 0.42 0.46 0.50 0.51 0.48 0.43 0.40 0.40 0.35 0.28 0.17 0.14 0.13 0.15 0.14 0.15 0.13 0.11 0.09
0.91 0.73 0.52 0.28 0.10 0.03 0.02 0.02 0.02 0.04 0.07 0.10 0.16 0.32 0.46 0.45 0.55 0.59 0.54 0.43 0.40 0.45 0.53 0.59 0.61 0.57 0.52 0.48 0.48 0.47 0.50 0.54 0.56 0.53 0.53 0.51 0.45 0.43 0.40 0.31 0.21 0.18 0.17 0.19 0.17 0.16 0.14 0.13 0.11
0.93 0.73 0.45 0.23 0.10 0.04 0.02 0.02 0.02 0.05 0.09 0.11 0.16 0.41 0.51 0.59 0.79 0.93 0.89 0.83 0.80 0.85 0.89 0.84 0.77 0.68 0.64 0.55 0.50 0.48 0.50 0.55 0.59 0.58 0.57 0.52 0.50 0.47 0.43 0.35 0.26 0.23 0.23 0.22 0.19 0.16 0.14 0.14 0.13
1.04 0.99 0.52 0.23 0.12 0.07 0.03 0.03 0.03 0.04 0.08 0.10 0.17 0.39 0.53 0.64 0.92 1.27 1.39 1.30 1.25 1.20 1.24 1.15 1.01 0.87 0.79 0.70 0.56 0.52 0.51 0.53 0.55 0.55 0.50 0.44 0.41 0.42 0.39 0.30 0.27 0.26 0.26 0.23 0.18 0.16 0.16 0.14 0.12
1.32 1.33 0.65 0.23 0.13 0.08 0.08 0.09 0.08 0.07 0.09 0.15 0.20 0.32 0.48 0.69 1.09 1.49 1.76 1.74 1.60 1.46 1.47 1.45 1.29 1.08 0.94 0.80 0.60 0.55 0.54 0.55 0.52 0.50 0.41 0.40 0.41 0.40 0.34 0.25 0.20 0.21 0.24 0.22 0.20 0.18 0.17 0.15 0.12
1.58 1.33 0.55 0.19 0.16 0.14 0.17 0.20 0.21 0.21 0.18 0.22 0.29 0.32 0.53 0.81 1.17 1.59 1.83 1.88 1.74 1.59 1.58 1.59 1.49 1.29 1.11 0.96 0.77 0.70 0.60 0.58 0.52 0.43 0.41 0.37 0.39 0.43 0.37 0.32 0.25 0.22 0.22 0.21 0.22 0.21 0.20 0.18 0.15
1.32 0.91 0.47 0.29 0.27 0.25 0.29 0.30 0.30 0.36 0.30 0.21 0.23 0.34 0.56 0.87 1.18 1.57 1.89 1.94 1.84 1.76 1.75 1.75 1.69 1.50 1.29 1.07 0.86 0.75 0.67 0.64 0.59 0.46 0.41 0.42 0.44 0.46 0.48 0.46 0.40 0.34 0.25 0.25 0.25 0.26 0.20 0.18 0.17
0.97 0.60 0.56 0.51 0.43 0.40 0.37 0.37 0.37 0.35 0.28 0.22 0.25 0.39 0.63 0.83 1.10 1.32 1.72 1.92 1.96 1.91 1.81 1.84 1.82 1.68 1.50 1.26 1.03 0.81 0.69 0.65 0.63 0.55 0.48 0.51 0.49 0.46 0.46 0.45 0.42 0.41 0.32 0.30 0.28 0.23 0.20 0.18 0.17
0.79 0.61 0.62 0.66 0.64 0.57 0.50 0.46 0.41 0.37 0.30 0.30 0.40 0.59 0.71 0.85 1.08 1.31 1.49 1.77 1.89 1.88 1.87 1.86 1.78 1.68 1.60 1.49 1.26 0.97 0.78 0.70 0.69 0.68 0.61 0.57 0.55 0.51 0.51 0.48 0.44 0.38 0.36 0.33 0.30 0.26 0.24 0.22 0.20
0.69 0.69 0.72 0.75 0.76 0.70 0.68 0.57 0.49 0.42 0.41 0.46 0.53 0.65 0.75 0.87 1.02 1.19 1.32 1.52 1.67 1.69 1.81 1.86 1.77 1.63 1.52 1.48 1.43 1.21 0.93 0.78 0.77 0.75 0.69 0.65 0.63 0.58 0.56 0.53 0.51 0.46 0.42 0.38 0.37 0.34 0.34 0.30 0.28
0.76 0.93 0.95 0.93 0.88 0.85 0.85 0.79 0.51 0.41 0.48 0.55 0.56 0.62 0.75 0.88 1.01 1.07 1.11 1.26 1.38 1.45 1.63 1.79 1.84 1.75 1.59 1.50 1.51 1.44 1.23 0.98 0.81 0.78 0.76 0.70 0.66 0.62 0.61 0.60 0.54 0.50 0.50 0.51 0.52 0.50 0.48 0.41 0.37
0.97 1.13 1.12 0.93 0.93 0.94 1.04 0.88 0.50 0.46 0.50 0.51 0.51 0.57 0.73 0.89 1.01 1.07 1.05 1.13 1.25 1.30 1.45 1.61 1.70 1.75 1.70 1.59 1.57 1.55 1.41 1.23 1.03 0.86 0.78 0.73 0.68 0.69 0.71 0.70 0.65 0.61 0.61 0.62 0.61 0.59 0.58 0.50 0.45
1.00 1.04 0.95 0.83 0.82 0.94 0.96 0.78 0.54 0.49 0.51 0.48 0.48 0.52 0.65 0.86 0.96 1.03 1.09 1.10 1.14 1.20 1.33 1.51 1.54 1.61 1.72 1.82 1.77 1.66 1.55 1.38 1.23 1.06 0.86 0.77 0.77 0.77 0.74 0.70 0.69 0.72 0.69 0.67 0.67 0.62 0.59 0.54 0.51
0.64 0.70 0.73 0.74 0.68 0.76 0.79 0.62 0.56 0.46 0.47 0.46 0.44 0.50 0.58 0.79 0.93 0.98 1.08 1.17 1.20 1.22 1.32 1.48 1.51 1.63 1.78 1.98 2.01 1.94 1.74 1.51 1.39 1.20 1.01 0.91 0.88 0.90 0.84 0.77 0.78 0.80 0.76 0.67 0.65 0.65 0.65 0.59 0.60
0.37 0.47 0.60 0.61 0.60 0.64 0.67 0.56 0.53 0.46 0.43 0.46 0.44 0.46 0.53 0.66 0.81 0.93 1.06 1.22 1.36 1.34 1.36 1.45 1.52 1.63 1.76 1.82 1.76 1.72 1.67 1.59 1.52 1.40 1.26 1.13 1.07 1.08 1.05 0.95 0.91 0.92 0.86 0.79 0.81 0.86 0.83 0.76 0.77
0.36 0.42 0.51 0.54 0.53 0.62 0.66 0.59 0.53 0.52 0.48 0.46 0.43 0.42 0.50 0.61 0.71 0.83 0.98 1.09 1.24 1.34 1.38 1.49 1.55 1.58 1.62 1.70 1.79 1.79 1.89 1.85 1.80 1.74 1.58 1.42 1.31 1.28 1.24 1.20 1.17 1.13 1.05 0.98 0.97 1.00 0.97 0.91 0.95
0.35 0.36 0.42 0.47 0.52 0.64 0.71 0.71 0.54 0.49 0.48 0.41 0.38 0.40 0.47 0.62 0.69 0.76 0.89 0.94 1.02 1.20 1.43 1.52 1.55 1.57 1.60 1.83 2.21 2.18 2.11 2.04 1.95 1.87 1.79 1.65 1.56 1.50 1.38 1.34 1.37 1.33 1.23 1.13 1.11 1.10 1.09 1.09 1.10
0.36 0.27 0.34 0.42 0.61 0.74 0.75 0.94 0.60 0.53 0.53 0.45 0.39 0.39 0.47 0.57 0.60 0.67 0.83 0.89 0.91 1.03 1.29 1.58 1.66 1.72 1.82 2.01 2.25 2.33 2.10 1.92 1.85 1.86 1.86 1.84 1.68 1.61 1.56 1.51 1.47 1.46 1.42 1.30 1.26 1.27 1.23 1.20 1.17
0.37 0.28 0.34 0.41 0.54 0.67 0.56 0.70 0.64 0.52 0.55 0.57 0.52 0.50 0.54 0.58 0.62 0.66 0.82 0.92 0.92 0.97 1.14 1.42 1.64 1.71 1.88 2.01 2.13 2.30 2.12 1.85 1.84 1.87 1.83 1.84 1.77 1.60 1.55 1.53 1.45 1.36 1.34 1.36 1.37 1.35 1.32 1.21 1.13
0.38 0.37 0.42 0.50 0.61 0.67 0.47 0.55 0.62 0.56 0.58 0.60 0.61 0.67 0.69 0.65 0.66 0.70 0.80 0.84 0.83 0.87 0.98 1.16 1.36 1.44 1.56 1.72 1.90 2.08 2.11 1.99 1.86 1.78 1.73 1.69 1.69 1.65 1.58 1.55 1.45 1.33 1.24 1.21 1.25 1.30 1.29 1.26 1.19
0.43 0.57 0.78 0.89 0.79 0.57 0.37 0.42 0.58 0.53 0.53 0.57 0.64 0.70 0.71 0.67 0.64 0.68 0.73 0.72 0.70 0.74 0.84 0.96 1.06 1.17 1.28 1.42 1.61 1.80 1.93 1.96 1.91 1.82 1.72 1.61 1.53 1.49 1.48 1.49 1.47 1.41 1.35 1.35 1.34 1.33 1.28 1.26 1.23
0.38 0.45 0.62 0.64 0.45 0.35 0.25 0.36 0.53 0.53 0.56 0.56 0.62 0.61 0.61 0.59 0.62 0.70 0.77 0.74 0.72 0.72 0.75 0.77 0.85 1.01 1.09 1.17 1.34 1.47 1.56 1.61 1.61 1.64 1.61 1.55 1.46 1.41 1.42 1.42 1.40 1.40 1.34 1.29 1.30 1.31 1.30 1.29 1.27
0.35 0.32 0.27 0.45 0.32 0.25 0.26 0.33 0.47 0.51 0.52 0.53 0.56 0.52 0.49 0.48 0.57 0.67 0.71 0.69 0.67 0.67 0.67 0.67 0.73 0.84 0.88 0.91 1.02 1.07 1.14 1.19 1.25 1.31 1.32 1.31 1.32 1.37 1.36 1.37 1.32 1.27 1.23 1.19 1.17 1.17 1.15 1.16 1.16
0.21 0.18 0.26 0.49 0.44 0.30 0.23 0.26 0.46 0.49 0.49 0.48 0.46 0.43 0.41 0.46 0.53 0.54 0.54 0.52 0.54 0.59 0.62 0.62 0.64 0.69 0.70 0.69 0.74 0.76 0.79 0.85 0.94 1.02 1.02 1.00 1.03 1.10 1.16 1.20 1.21 1.18 1.16 1.12 1.10 1.04 1.00 1.00 0.97
0.15 0.17 0.23 0.33 0.29 0.25 0.19 0.28 0.33 0.38 0.41 0.39 0.37 0.37 0.38 0.42 0.42 0.41 0.39 0.39 0.42 0.46 0.46 0.46 0.49 0.56 0.56 0.52 0.52 0.55 0.57 0.61 0.70 0.82 0.90 0.92 0.91 0.88 0.94 1.04 1.11 1.10 1.09 1.07 1.04 0.98 0.93 0.90 0.87
0.08 0.11 0.20 0.34 0.24 0.19 0.16 0.24 0.24 0.27 0.29 0.28 0.28 0.30 0.31 0.33 0.34 0.34 0.33 0.33 0.34 0.35 0.36 0.39 0.42 0.44 0.44 0.40 0.40 0.41 0.42 0.44 0.50 0.59 0.68 0.73 0.77 0.80 0.79 0.78 0.82 0.88 0.92 0.94 0.95 0.93 0.88 0.83 0.81